Location: T�bingen+AIT
(48.5342°N, 9.0700°E)
Time: 15:09:07
(UTC+01:00)

ARGOS - Pass Details

Date: 14 September 2017
Orbit: 819 x 835 km, 98.6° (Epoch: 18 November)

Event Time Altitude Azimuth Distance (km) Brightness Sun altitude
Exits shadow 23:03:06 42° 253° (WSW) 1,173 4.0 -30.5°
Maximum altitude 23:03:24 42° 262° (W) 1,166 4.0 -30.6°
Drops below altitude 10° 23:08:33 10° 333° (NNW) 2,450 6.5 -31.1°
Sets 23:11:03 0° 341° (NNW) 3,391 7.3 -31.4°
